Meteo Giornale » Osservazioni meteo Stati Uniti (USA) » Fort Bragg-Simmons Army Airfield
ore: 19:55 - Osservazioni Meteo Fort Bragg-Simmons Army Airfield
Lat. 35° 8' N Lon. 78° 56' W Alt. 74 metri s.l.m.
29 °C
Sereno
Temp. 24 Ore
22 °C
34 °C
Nord
0 Km/h
Dew point 24 °C
Umidità 74 %
Visibilità 10 Km
Il sole sorge alle ore 06:47
Il sole tramonta alle ore 19:44
| Data e Ora | Cielo e Fenomeni | T °C | DP °C | Um. % | Pres. hPa | Vis. km | Vento km/h | |
|---|---|---|---|---|---|---|---|---|
| Oggi h: 19:55 | Sereno | 29 | 24 | 74 | 1017 | 10 | N 0 | |
| Oggi h: 18:55 | Sereno | 32 | 22 | 55 | 1017 | 10 | E/SE 7.4 | |
| Oggi h: 17:55 | Sereno | 33 | 21 | 49 | 1017 | 10 | E/NE 7.4 | |
| Oggi h: 16:55 | Poco Nuvoloso | 34 | 22 | 49 | 1017 | 10 | N 0 | |
| Oggi h: 15:55 | Nuvoloso | 33 | 21 | 49 | 1017 | 10 | N 5.5 | |
| Oggi h: 15:39 | Nuvoloso | 34 | 21 | 46 | 1017 | 10 | N 5.5 | |
| Oggi h: 14:55 | Sereno | 34 | 21 | 46 | 1018 | 10 | N 0 | |
| Oggi h: 14:26 | Poco Nuvoloso | 33 | 21 | 49 | 1018 | 10 | N 0 | |
| Oggi h: 13:55 | Sereno | 33 | 22 | 52 | 1019 | 10 | N 0 | |
| Oggi h: 12:55 | Sereno | 32 | 22 | 55 | 1019 | 10 | N 0 | |
| Oggi h: 11:55 | Sereno | 31 | 23 | 62 | 1019 | 10 | N 5.5 | |
| Oggi h: 10:55 | Sereno | 30 | 22 | 62 | 1019 | 10 | N 5.5 | |
| Oggi h: 09:55 | Sereno | 29 | 23 | 70 | 1019 | 10 | N/NO 7.4 | |
| Oggi h: 08:55 | Sereno | 26 | 24 | 88 | 1019 | 10 | N 5.5 | |
| Oggi h: 07:55 | Sereno | 23 | 22 | 94 | 1019 | 13 | N 0 | |
| Oggi h: 06:55 | Sereno | 22 | 21 | 94 | 1019 | 10 | N 0 | |
| Oggi h: 05:55 | Sereno | 22 | 21 | 94 | 1019 | 10 | N 0 | |
| Oggi h: 04:55 | Sereno | 23 | 22 | 94 | 1019 | 10 | N 0 | |
| Oggi h: 03:55 | Sereno | 23 | 22 | 94 | 1019 | 10 | N 0 | |
| Oggi h: 02:55 | Sereno | 24 | 23 | 94 | 1019 | 10 | N 0 | |
| Oggi h: 01:55 | Sereno | 24 | 23 | 94 | 1019 | 10 | N 0 | |
| Oggi h: 00:55 | Sereno | 24 | 23 | 94 | 1019 | 10 | N 0 | |
| Ieri h: 23:55 | Sereno | 24 | 23 | 94 | 1019 | 10 | N 0 | |
| Ieri h: 22:55 | Sereno | 25 | 24 | 94 | 1019 | 10 | N 0 | |
| Ieri h: 21:55 | Sereno | 26 | 23 | 83 | 1019 | 10 | N 0 | |
| Ieri h: 20:55 | Sereno | 26 | 24 | 88 | 1019 | 10 | N 0 | |



